Location: C�mpuri de-Sus
(45.9500°N, 22.5500°E)
Time: 03:56:20
(UTC+00:00)

NOSS 2-3 (C) - Pass Details

Date: 24 October 2021
Orbit: 536 x 1675 km, 63.3° (Epoch: 25 November)

Event Time Altitude Azimuth Distance (km) Brightness Sun altitude
Rises 16:33:05 0° 210° (SSW) 2,673 7.4 -11.9°
Reaches altitude 10° 16:35:09 10° 208° (SSW) 1,806 6.4 -12.3°
Maximum altitude 16:39:04 69° 125° (SE) 631 3.4 -12.9°
Enters shadow 16:43:24 11° 43° (NE) 2,011 5.8 -13.7°
